,,,PA_Meas_PMT16A,,PR_Meas_QMR101_102,,RH_Meas_QMH101,,SR_Meas_QMS101,,TA_Meas_QMH101,,GenWind,,GenWind,
date,time,status,PA,status,PR,status,RH,status,SR,status,TA,status,DirAvg,status,SpdAvg,
2012-08-19, 00:00:04,VALID,1011.07,VALID,0,VALID,103.787,VALID,0,VALID,23.7525,VALID,93,VALID,0,
2012-08-19, 00:01:04,VALID,1011.06,VALID,0,VALID,103.809,VALID,0,VALID,23.733,VALID,93,VALID,0,
2012-08-19, 00:02:04,VALID,1011.06,VALID,0,VALID,103.97,VALID,0,VALID,23.7117,VALID,115,VALID,0.746094,
2012-08-19, 00:03:04,VALID,1011.08,VALID,0,VALID,103.977,VALID,0,VALID,23.733,VALID,118,VALID,0.397656,
2012-08-19, 00:04:04,VALID,1011.07,VALID,0,VALID,104,VALID,0,VALID,23.733,VALID,118,VALID,0.519531,
2012-08-19, 00:05:04,VALID,1011.03,VALID,0,VALID,103.992,VALID,0,VALID,23.7135,VALID,119,VALID,0.7125,
2012-08-19, 00:06:04,VALID,1011.03,VALID,0,VALID,104,VALID,0,VALID,23.733,VALID,110,VALID,0.354688,
2012-08-19, 00:07:04,VALID,1011.02,VALID,0,VALID,104,VALID,0.112112,VALID,23.7135,VALID,109,VALID,0.285547,
2012-08-19, 00:08:04,VALID,1010.99,VALID,0,VALID,104,VALID,0,VALID,23.7135,VALID,110,VALID,0.0570313,
2012-08-19, 00:09:04,VALID,1011,VALID,0,VALID,104,VALID,0,VALID,23.7135,VALID,110,VALID,0,
2012-08-19, 00:10:04,VALID,1011.03,VALID,0,VALID,103.962,VALID,0,VALID,23.694,VALID,109,VALID,0,
2012-08-19, 00:11:04,VALID,1011.06,VALID,0,VALID,103.97,VALID,0,VALID,23.694,VALID,110,VALID,0,
2012-08-19, 00:12:04,VALID,1011.05,VALID,0,VALID,103.962,VALID,0,VALID,23.6745,VALID,109,VALID,0,
2012-08-19, 00:13:04,VALID,1011.05,VALID,0,VALID,104,VALID,0,VALID,23.6745,VALID,109,VALID,0,
2012-08-19, 00:14:04,VALID,1011.04,VALID,0,VALID,104,VALID,0,VALID,23.655,VALID,109,VALID,0,
2012-08-19, 00:15:04,VALID,1011.03,VALID,0,VALID,104,VALID,0,VALID,23.655,VALID,109,VALID,0.217187,
2012-08-19, 00:16:04,VALID,1011.01,VALID,0,VALID,104,VALID,0,VALID,23.655,VALID,109,VALID,0,
2012-08-19, 00:17:04,VALID,1010.99,VALID,0,VALID,104,VALID,0,VALID,23.6338,VALID,101,VALID,0.578516,
2012-08-19, 00:18:04,VALID,1011,VALID,0,VALID,104,VALID,0,VALID,23.655,VALID,101,VALID,0.398438,
2012-08-19, 00:19:04,VALID,1011,VALID,0,VALID,104,VALID,0,VALID,23.655,VALID,101,VALID,0.275391,
2012-08-19, 00:20:04,VALID,1011,VALID,0,VALID,104,VALID,0,VALID,23.6356,VALID,101,VALID,0.311719,
2012-08-19, 00:21:04,VALID,1011.01,VALID,0,VALID,104,VALID,0,VALID,23.6356,VALID,101,VALID,0.115234,
2012-08-19, 00:22:04,VALID,1010.97,VALID,0,VALID,104,VALID,0,VALID,23.5966,VALID,101,VALID,0,
2012-08-19, 00:23:04,VALID,1010.94,VALID,0,VALID,104,VALID,0,VALID,23.5753,VALID,101,VALID,0.332422,
2012-08-19, 00:24:04,VALID,1010.96,VALID,0,VALID,104,VALID,0,VALID,23.5966,VALID,101,VALID,0.164453,
2012-08-19, 00:25:04,VALID,1010.94,VALID,0,VALID,104,VALID,0.112112,VALID,23.5753,VALID,101,VALID,0.369531,
2012-08-19, 00:26:04,VALID,1010.93,VALID,0,VALID,104,VALID,0,VALID,23.5576,VALID,101,VALID,0.271094,
2012-08-19, 00:27:04,VALID,1010.91,VALID,0,VALID,104,VALID,0,VALID,23.5576,VALID,101,VALID,0.354688,
2012-08-19, 00:28:04,VALID,1010.86,VALID,0,VALID,104,VALID,0.112112,VALID,23.5381,VALID,101,VALID,0.433203,
2012-08-19, 00:29:04,VALID,1010.86,VALID,0,VALID,104,VALID,0,VALID,23.5576,VALID,101,VALID,0.454688,
2012-08-19, 00:30:04,VALID,1010.83,VALID,0,VALID,104,VALID,0,VALID,23.5381,VALID,103,VALID,0.572656,
2012-08-19, 00:31:04,VALID,1010.83,VALID,0,VALID,104,VALID,0,VALID,23.5381,VALID,103,VALID,0.323438,
2012-08-19, 00:32:04,VALID,1010.79,VALID,0,VALID,104,VALID,0,VALID,23.5381,VALID,103,VALID,0,
2012-08-19, 00:33:04,VALID,1010.8,VALID,0,VALID,104,VALID,0.112112,VALID,23.5381,VALID,103,VALID,0.597266,
2012-08-19, 00:34:04,VALID,1010.81,VALID,0,VALID,104,VALID,0.112112,VALID,23.5576,VALID,103,VALID,0.476563,
2012-08-19, 00:35:04,VALID,1010.82,VALID,0,VALID,104,VALID,0.112112,VALID,23.5576,VALID,103,VALID,0.486328,
2012-08-19, 00:36:04,VALID,1010.82,VALID,0,VALID,104,VALID,0,VALID,23.5771,VALID,103,VALID,0.317187,
2012-08-19, 00:37:04,VALID,1010.82,VALID,0,VALID,104,VALID,0,VALID,23.5576,VALID,102,VALID,0.515234,
2012-08-19, 00:38:04,VALID,1010.81,VALID,0,VALID,104,VALID,0,VALID,23.5363,VALID,65,VALID,0.703125,
2012-08-19, 00:39:04,VALID,1010.8,VALID,0,VALID,104,VALID,0.112112,VALID,23.5789,VALID,52,VALID,0.727344,
2012-08-19, 00:40:04,VALID,1010.82,VALID,0,VALID,104,VALID,0.112112,VALID,23.5576,VALID,56,VALID,0.589063,
2012-08-19, 00:41:04,VALID,1010.79,VALID,0,VALID,104,VALID,0,VALID,23.5576,VALID,78,VALID,0.508594,
2012-08-19, 00:42:04,VALID,1010.78,VALID,0,VALID,104,VALID,0,VALID,23.5576,VALID,78,VALID,0.464453,
2012-08-19, 00:43:04,VALID,1010.73,VALID,0,VALID,104,VALID,0,VALID,23.5789,VALID,78,VALID,0.337109,
2012-08-19, 00:44:04,VALID,1010.68,VALID,0,VALID,104,VALID,0,VALID,23.5576,VALID,76,VALID,0.607813,
2012-08-19, 00:45:04,VALID,1010.67,VALID,0,VALID,104,VALID,0,VALID,23.5363,VALID,73,VALID,0.476172,
2012-08-19, 00:46:04,VALID,1010.68,VALID,0,VALID,104,VALID,0,VALID,23.5381,VALID,73,VALID,0.315625,
2012-08-19, 00:47:04,VALID,1010.66,VALID,0,VALID,104,VALID,0,VALID,23.5381,VALID,73,VALID,0.496484,
2012-08-19, 00:48:04,VALID,1010.68,VALID,0,VALID,104,VALID,0.112112,VALID,23.4974,VALID,73,VALID,0.334375,
2012-08-19, 00:49:04,VALID,1010.64,VALID,0,VALID,104,VALID,0.112112,VALID,23.5186,VALID,73,VALID,0.426172,
2012-08-19, 00:50:04,VALID,1010.64,VALID,0,VALID,104,VALID,0,VALID,23.4992,VALID,73,VALID,0.510156,
2012-08-19, 00:51:04,VALID,1010.6,VALID,0,VALID,104,VALID,0,VALID,23.4797,VALID,73,VALID,0.448438,
2012-08-19, 00:52:04,VALID,1010.59,VALID,0,VALID,104,VALID,0,VALID,23.4797,VALID,73,VALID,0.139844,
2012-08-19, 00:53:04,VALID,1010.53,VALID,0,VALID,104,VALID,0,VALID,23.4797,VALID,76,VALID,0.632422,
2012-08-19, 00:54:04,VALID,1010.53,VALID,0,VALID,104,VALID,0,VALID,23.4797,VALID,99,VALID,0.890234,
2012-08-19, 00:55:04,VALID,1010.51,VALID,0,VALID,104,VALID,0,VALID,23.5186,VALID,106,VALID,0.734766,
2012-08-19, 00:56:04,VALID,1010.5,VALID,0,VALID,104,VALID,0,VALID,23.4992,VALID,106,VALID,0.530859,
2012-08-19, 00:57:04,VALID,1010.48,VALID,0,VALID,104,VALID,0,VALID,23.5186,VALID,106,VALID,0.357422,
2012-08-19, 00:58:04,VALID,1010.45,VALID,0,VALID,104,VALID,0,VALID,23.4992,VALID,134,VALID,1.10938,
2012-08-19, 00:59:04,VALID,1010.41,VALID,0,VALID,104,VALID,0,VALID,23.4797,VALID,101,VALID,0.817969,
2012-08-19, 01:00:04,VALID,1010.39,VALID,0,VALID,104,VALID,0,VALID,23.4992,VALID,102,VALID,0.512109,
2012-08-19, 01:01:04,VALID,1010.39,VALID,0,VALID,104,VALID,0,VALID,23.4584,VALID,99,VALID,0.428906,
2012-08-19, 01:02:04,VALID,1010.39,VALID,0,VALID,104,VALID,0,VALID,23.4797,VALID,99,VALID,0.490234,
2012-08-19, 01:03:04,VALID,1010.39,VALID,0,VALID,104,VALID,0,VALID,23.4602,VALID,89,VALID,0.931641,
2012-08-19, 01:04:04,VALID,1010.35,VALID,0,VALID,104,VALID,0,VALID,23.4407,VALID,95,VALID,0.373437,
2012-08-19, 01:05:04,VALID,1010.39,VALID,0,VALID,104,VALID,0,VALID,23.4407,VALID,95,VALID,0.45625,
2012-08-19, 01:06:04,VALID,1010.37,VALID,0,VALID,104,VALID,0,VALID,23.4212,VALID,95,VALID,0.285937,
2012-08-19, 01:07:04,VALID,1010.39,VALID,0,VALID,104,VALID,0,VALID,23.4017,VALID,95,VALID,0.428906,
2012-08-19, 01:08:04,VALID,1010.38,VALID,0,VALID,104,VALID,0,VALID,23.4017,VALID,83,VALID,0.595703,
2012-08-19, 01:09:04,VALID,1010.35,VALID,0,VALID,104,VALID,0,VALID,23.4017,VALID,78,VALID,0.458203,
2012-08-19, 01:10:04,VALID,1010.34,VALID,0,VALID,104,VALID,0,VALID,23.4017,VALID,34,VALID,0.469922,
2012-08-19, 01:11:04,VALID,1010.35,VALID,0,VALID,104,VALID,0.112112,VALID,23.3823,VALID,34,VALID,0.350781,
2012-08-19, 01:12:04,VALID,1010.32,VALID,0,VALID,104,VALID,0,VALID,23.3628,VALID,34,VALID,0.303125,
2012-08-19, 01:13:04,VALID,1010.3,VALID,0,VALID,104,VALID,0,VALID,23.3433,VALID,34,VALID,0.430859,
2012-08-19, 01:14:04,VALID,1010.26,VALID,0,VALID,104,VALID,0,VALID,23.3238,VALID,34,VALID,0.455859,
2012-08-19, 01:15:04,VALID,1010.27,VALID,0,VALID,104,VALID,0,VALID,23.2848,VALID,34,VALID,0.267188,
2012-08-19, 01:16:04,VALID,1010.26,VALID,0,VALID,104,VALID,0,VALID,23.2459,VALID,34,VALID,0.314844,
2012-08-19, 01:17:04,VALID,1010.24,VALID,0,VALID,104,VALID,0,VALID,23.2264,VALID,34,VALID,0.0121094,
2012-08-19, 01:18:04,VALID,1010.23,VALID,0,VALID,104,VALID,0,VALID,23.2069,VALID,34,VALID,0.403906,
2012-08-19, 01:19:04,VALID,1010.21,VALID,0,VALID,104,VALID,0,VALID,23.1874,VALID,34,VALID,0.531641,
2012-08-19, 01:20:04,VALID,1010.19,VALID,0,VALID,104,VALID,0,VALID,23.1485,VALID,34,VALID,0.369531,
2012-08-19, 01:21:04,VALID,1010.18,VALID,0,VALID,104,VALID,0,VALID,23.1485,VALID,34,VALID,0.251563,
2012-08-19, 01:22:04,VALID,1010.18,VALID,0,VALID,104,VALID,0,VALID,23.129,VALID,34,VALID,0.615625,
2012-08-19, 01:23:04,VALID,1010.17,VALID,0,VALID,104,VALID,0,VALID,23.1095,VALID,34,VALID,0.125,
2012-08-19, 01:24:04,VALID,1010.16,VALID,0,VALID,104,VALID,0,VALID,23.09,VALID,34,VALID,0.282422,
2012-08-19, 01:25:04,VALID,1010.15,VALID,0,VALID,104,VALID,0,VALID,23.0705,VALID,34,VALID,0.654688,
2012-08-19, 01:26:04,VALID,1010.15,VALID,0,VALID,104,VALID,0,VALID,23.09,VALID,34,VALID,0.323828,
2012-08-19, 01:27:04,VALID,1010.13,VALID,0,VALID,104,VALID,0,VALID,23.0705,VALID,34,VALID,0.0273438,
2012-08-19, 01:28:04,VALID,1010.14,VALID,0,VALID,104,VALID,0,VALID,23.0511,VALID,34,VALID,0.251172,
2012-08-19, 01:29:04,VALID,1010.16,VALID,0,VALID,104,VALID,0,VALID,23.0705,VALID,34,VALID,0.402344,
2012-08-19, 01:30:04,VALID,1010.13,VALID,0,VALID,104,VALID,0,VALID,23.0316,VALID,34,VALID,0.285547,
2012-08-19, 01:31:04,VALID,1010.09,VALID,0,VALID,104,VALID,0,VALID,23.0316,VALID,34,VALID,0.380469,
2012-08-19, 01:32:04,VALID,1010.08,VALID,0,VALID,104,VALID,0,VALID,23.0103,VALID,34,VALID,0.415234,
2012-08-19, 01:33:04,VALID,1010.08,VALID,0,VALID,104,VALID,0,VALID,23.0316,VALID,62,VALID,0.853516,
2012-08-19, 01:34:04,VALID,1010.06,VALID,0,VALID,104,VALID,0,VALID,23.0298,VALID,83,VALID,1.04453,
2012-08-19, 01:35:04,VALID,1010.07,VALID,0,VALID,104,VALID,0,VALID,23.0316,VALID,63,VALID,0.698047,
2012-08-19, 01:36:04,VALID,1010.06,VALID,0,VALID,104,VALID,0,VALID,23.0316,VALID,63,VALID,0.578906,
2012-08-19, 01:37:04,VALID,1010.04,VALID,0,VALID,104,VALID,0.112112,VALID,23.0316,VALID,63,VALID,0.588672,
2012-08-19, 01:38:04,VALID,1010.03,VALID,0,VALID,104,VALID,0,VALID,23.0121,VALID,62,VALID,0.794922,
2012-08-19, 01:39:04,VALID,1010,VALID,0,VALID,104,VALID,0,VALID,23.0316,VALID,58,VALID,1.04766,
2012-08-19, 01:40:04,VALID,1009.99,VALID,0,VALID,104,VALID,0,VALID,23.0316,VALID,57,VALID,0.497266,
2012-08-19, 01:41:04,VALID,1009.97,VALID,0,VALID,104,VALID,0,VALID,23.0316,VALID,57,VALID,0.689844,
2012-08-19, 01:42:04,VALID,1009.99,VALID,0,VALID,104,VALID,0,VALID,23.0121,VALID,57,VALID,0.550781,
2012-08-19, 01:43:04,VALID,1009.98,VALID,0,VALID,104,VALID,0,VALID,23.0121,VALID,69,VALID,0.713672,
2012-08-19, 01:44:04,VALID,1010.01,VALID,0,VALID,104,VALID,0,VALID,22.9714,VALID,74,VALID,1.00898,
2012-08-19, 01:45:04,VALID,1010.03,VALID,0,VALID,104,VALID,0,VALID,22.9926,VALID,70,VALID,1.09063,
2012-08-19, 01:46:04,VALID,1010.06,VALID,0,VALID,104,VALID,0,VALID,22.9926,VALID,72,VALID,0.783984,
2012-08-19, 01:47:04,VALID,1010.06,VALID,0,VALID,104,VALID,0,VALID,22.9731,VALID,72,VALID,1.1582,
2012-08-19, 01:48:04,VALID,1010.07,VALID,0,VALID,104,VALID,0,VALID,22.9731,VALID,68,VALID,0.757813,
2012-08-19, 01:49:04,VALID,1010.06,VALID,0,VALID,104,VALID,0,VALID,22.9324,VALID,67,VALID,0.449219,
2012-08-19, 01:50:04,VALID,1010.08,VALID,0,VALID,104,VALID,0,VALID,22.9342,VALID,62,VALID,0.758203,
2012-08-19, 01:51:04,VALID,1010.03,VALID,0,VALID,104,VALID,0.112112,VALID,22.9342,VALID,57,VALID,1.01641,
2012-08-19, 01:52:04,VALID,1010.04,VALID,0,VALID,104,VALID,0,VALID,22.9129,VALID,87,VALID,0.551562,
2012-08-19, 01:53:04,VALID,1010.03,VALID,0,VALID,104,VALID,0.112112,VALID,22.9129,VALID,77,VALID,0.932813,
2012-08-19, 01:54:04,VALID,1010,VALID,0,VALID,104,VALID,0,VALID,22.9147,VALID,70,VALID,0.839844,
2012-08-19, 01:55:04,VALID,1009.98,VALID,0,VALID,104,VALID,0,VALID,22.9147,VALID,83,VALID,0.774219,
2012-08-19, 01:56:04,VALID,1009.96,VALID,0,VALID,104,VALID,0,VALID,22.8952,VALID,76,VALID,0.562891,
2012-08-19, 01:57:04,VALID,1009.95,VALID,0,VALID,104,VALID,0,VALID,22.9147,VALID,79,VALID,0.883594,
2012-08-19, 01:58:04,VALID,1009.95,VALID,0,VALID,104,VALID,0,VALID,22.9342,VALID,53,VALID,0.884766,
2012-08-19, 01:59:04,VALID,1009.91,VALID,0,VALID,104,VALID,0,VALID,22.8952,VALID,52,VALID,0.405078,
2012-08-19, 02:00:04,VALID,1009.92,VALID,0,VALID,104,VALID,0.112112,VALID,22.9147,VALID,75,VALID,1.12383,
2012-08-19, 02:01:04,VALID,1009.88,VALID,0,VALID,104,VALID,0,VALID,22.9147,VALID,80,VALID,0.408984,
2012-08-19, 02:02:04,VALID,1009.91,VALID,0,VALID,104,VALID,0,VALID,22.9342,VALID,76,VALID,1.19414,
2012-08-19, 02:03:04,VALID,1009.87,VALID,0,VALID,104,VALID,0,VALID,22.9342,VALID,53,VALID,1.23789,
2012-08-19, 02:04:04,VALID,1009.86,VALID,0,VALID,104,VALID,0,VALID,22.9342,VALID,86,VALID,1.05391,
2012-08-19, 02:05:04,VALID,1009.82,VALID,0,VALID,104,VALID,0,VALID,22.8935,VALID,86,VALID,0.876172,
2012-08-19, 02:06:04,VALID,1009.87,VALID,0,VALID,104,VALID,0,VALID,22.9129,VALID,81,VALID,0.930469,
2012-08-19, 02:07:04,VALID,1009.84,VALID,0,VALID,104,VALID,0,VALID,22.9536,VALID,76,VALID,0.576172,
2012-08-19, 02:08:04,VALID,1009.82,VALID,0,VALID,104,VALID,0,VALID,22.9342,VALID,77,VALID,0.670313,
2012-08-19, 02:09:04,VALID,1009.79,VALID,0,VALID,104,VALID,0,VALID,22.9342,VALID,77,VALID,0.703906,
2012-08-19, 02:10:04,VALID,1009.76,VALID,0,VALID,104,VALID,0,VALID,22.9129,VALID,73,VALID,0.732813,
2012-08-19, 02:11:04,VALID,1009.77,VALID,0,VALID,104,VALID,0,VALID,22.9342,VALID,74,VALID,0.562891,
2012-08-19, 02:12:04,VALID,1009.79,VALID,0,VALID,104,VALID,0,VALID,22.9129,VALID,74,VALID,0.607031,
2012-08-19, 02:13:04,VALID,1009.77,VALID,0,VALID,104,VALID,0,VALID,22.9342,VALID,71,VALID,0.724219,
2012-08-19, 02:14:04,VALID,1009.78,VALID,0,VALID,104,VALID,0,VALID,22.9342,VALID,86,VALID,0.557813,
2012-08-19, 02:15:04,VALID,1009.79,VALID,0,VALID,104,VALID,0,VALID,22.9342,VALID,77,VALID,0.655469,
2012-08-19, 02:16:04,VALID,1009.8,VALID,0,VALID,104,VALID,0,VALID,22.9554,VALID,64,VALID,0.551172,
2012-08-19, 02:17:04,VALID,1009.8,VALID,0,VALID,104,VALID,0,VALID,22.9342,VALID,64,VALID,0.340234,
2012-08-19, 02:18:04,VALID,1009.8,VALID,0,VALID,104,VALID,0,VALID,22.9342,VALID,64,VALID,0.201172,
2012-08-19, 02:19:04,VALID,1009.77,VALID,0,VALID,104,VALID,0,VALID,22.9342,VALID,64,VALID,0.605859,
2012-08-19, 02:20:04,VALID,1009.75,VALID,0,VALID,104,VALID,0,VALID,22.9342,VALID,64,VALID,0.09375,
2012-08-19, 02:21:04,VALID,1009.71,VALID,0,VALID,104,VALID,0,VALID,22.9536,VALID,64,VALID,0.3125,
2012-08-19, 02:22:04,VALID,1009.72,VALID,0,VALID,104,VALID,0,VALID,22.9749,VALID,64,VALID,0.193359,
2012-08-19, 02:23:04,VALID,1009.72,VALID,0,VALID,104,VALID,0,VALID,22.9554,VALID,64,VALID,0.2375,
2012-08-19, 02:24:04,VALID,1009.71,VALID,0,VALID,104,VALID,0,VALID,22.9554,VALID,78,VALID,0.464453,
2012-08-19, 02:25:04,VALID,1009.64,VALID,0,VALID,104,VALID,0,VALID,22.9536,VALID,78,VALID,0.124219,
2012-08-19, 02:26:04,VALID,1009.64,VALID,0,VALID,104,VALID,0,VALID,22.9342,VALID,81,VALID,0.314063,
2012-08-19, 02:27:04,VALID,1009.62,VALID,0,VALID,104,VALID,0,VALID,22.9536,VALID,82,VALID,0.446094,
2012-08-19, 02:28:04,VALID,1009.64,VALID,0,VALID,104,VALID,0,VALID,22.9536,VALID,82,VALID,0.458984,
2012-08-19, 02:29:04,VALID,1009.64,VALID,0,VALID,104,VALID,0,VALID,22.9536,VALID,82,VALID,0.576172,
2012-08-19, 02:30:04,VALID,1009.64,VALID,0,VALID,104,VALID,0,VALID,22.9536,VALID,81,VALID,0.392969,
2012-08-19, 02:31:04,VALID,1009.66,VALID,0,VALID,104,VALID,0,VALID,22.9536,VALID,81,VALID,0.5,
2012-08-19, 02:32:04,VALID,1009.68,VALID,0,VALID,104,VALID,0,VALID,22.9536,VALID,80,VALID,0.971875,
2012-08-19, 02:33:04,VALID,1009.71,VALID,0,VALID,104,VALID,0,VALID,22.9536,VALID,76,VALID,0.970312,
2012-08-19, 02:34:04,VALID,1009.7,VALID,0,VALID,104,VALID,0,VALID,22.9536,VALID,78,VALID,0.364453,
2012-08-19, 02:35:04,VALID,1009.72,VALID,0,VALID,104,VALID,0,VALID,22.9731,VALID,78,VALID,0.866797,
2012-08-19, 02:36:04,VALID,1009.71,VALID,0,VALID,104,VALID,0,VALID,22.9536,VALID,81,VALID,0.767187,
2012-08-19, 02:37:04,VALID,1009.74,VALID,0,VALID,104,VALID,0,VALID,22.9731,VALID,77,VALID,0.546875,
2012-08-19, 02:38:04,VALID,1009.75,VALID,0,VALID,104,VALID,0,VALID,22.9731,VALID,77,VALID,0.863672,
2012-08-19, 02:39:04,VALID,1009.73,VALID,0,VALID,104,VALID,0,VALID,22.9731,VALID,79,VALID,0.857813,
2012-08-19, 02:40:04,VALID,1009.74,VALID,0,VALID,104,VALID,0,VALID,23.0138,VALID,59,VALID,0.310547,
2012-08-19, 02:41:04,VALID,1009.75,VALID,0,VALID,104,VALID,0,VALID,22.9926,VALID,61,VALID,0.417969,
2012-08-19, 02:42:04,VALID,1009.75,VALID,0,VALID,104,VALID,0,VALID,22.9926,VALID,74,VALID,0.695703,
2012-08-19, 02:43:04,VALID,1009.78,VALID,0,VALID,104,VALID,0,VALID,23.0138,VALID,82,VALID,1.04492,
2012-08-19, 02:44:04,VALID,1009.79,VALID,0,VALID,104,VALID,0,VALID,22.9926,VALID,63,VALID,1.00156,
2012-08-19, 02:45:04,VALID,1009.76,VALID,0,VALID,104,VALID,0,VALID,22.9926,VALID,65,VALID,1.41758,
2012-08-19, 02:46:04,VALID,1009.77,VALID,0,VALID,104,VALID,0,VALID,23.0138,VALID,81,VALID,0.734766,
2012-08-19, 02:47:04,VALID,1009.75,VALID,0,VALID,104,VALID,0,VALID,23.0121,VALID,78,VALID,0.645703,
2012-08-19, 02:48:04,VALID,1009.71,VALID,0,VALID,104,VALID,0.112112,VALID,23.0316,VALID,88,VALID,0.641797,
2012-08-19, 02:49:04,VALID,1009.72,VALID,0,VALID,104,VALID,0,VALID,23.0316,VALID,64,VALID,0.659375,
2012-08-19, 02:50:04,VALID,1009.69,VALID,0,VALID,104,VALID,0,VALID,23.0528,VALID,77,VALID,0.841406,
2012-08-19, 02:51:04,VALID,1009.66,VALID,0,VALID,104,VALID,0,VALID,23.0528,VALID,92,VALID,1.11523,
2012-08-19, 02:52:04,VALID,1009.65,VALID,0,VALID,104,VALID,0,VALID,23.0705,VALID,97,VALID,0.706641,
2012-08-19, 02:53:04,VALID,1009.65,VALID,0,VALID,104,VALID,0,VALID,23.09,VALID,94,VALID,1.49375,
2012-08-19, 02:54:04,VALID,1009.63,VALID,0,VALID,104,VALID,0,VALID,23.1095,VALID,103,VALID,0.95,
2012-08-19, 02:55:04,VALID,1009.64,VALID,0,VALID,104,VALID,0,VALID,23.1095,VALID,104,VALID,1.25156,
2012-08-19, 02:56:04,VALID,1009.66,VALID,0,VALID,104,VALID,0,VALID,23.1679,VALID,81,VALID,1.04141,
2012-08-19, 02:57:04,VALID,1009.64,VALID,0,VALID,104,VALID,0,VALID,23.1874,VALID,74,VALID,0.612891,
2012-08-19, 02:58:04,VALID,1009.6,VALID,0,VALID,104,VALID,0,VALID,23.1874,VALID,70,VALID,0.857422,
2012-08-19, 02:59:04,VALID,1009.6,VALID,0,VALID,104,VALID,0,VALID,23.2069,VALID,107,VALID,1.11172,
2012-08-19, 03:00:04,VALID,1009.56,VALID,0,VALID,104,VALID,0,VALID,23.2264,VALID,100,VALID,1.49883,
2012-08-19, 03:01:04,VALID,1009.54,VALID,0,VALID,104,VALID,0,VALID,23.2459,VALID,106,VALID,1.63984,
2012-08-19, 03:02:04,VALID,1009.54,VALID,0,VALID,104,VALID,0,VALID,23.2866,VALID,103,VALID,1.60234,
2012-08-19, 03:03:04,VALID,1009.54,VALID,0,VALID,104,VALID,0,VALID,23.2848,VALID,105,VALID,1.00391,
2012-08-19, 03:04:04,VALID,1009.58,VALID,0,VALID,104,VALID,0,VALID,23.3043,VALID,83,VALID,0.808984,
2012-08-19, 03:05:04,VALID,1009.61,VALID,0,VALID,104,VALID,0,VALID,23.3043,VALID,81,VALID,0.366016,
2012-08-19, 03:06:04,VALID,1009.61,VALID,0,VALID,104,VALID,0,VALID,23.3238,VALID,107,VALID,0.796484,
2012-08-19, 03:07:04,VALID,1009.61,VALID,0,VALID,104,VALID,0,VALID,23.3451,VALID,60,VALID,0.800781,
2012-08-19, 03:08:04,VALID,1009.62,VALID,0,VALID,104,VALID,0,VALID,23.3451,VALID,92,VALID,1.00234,
2012-08-19, 03:09:04,VALID,1009.62,VALID,0,VALID,104,VALID,0,VALID,23.3238,VALID,91,VALID,0.70625,
2012-08-19, 03:10:04,VALID,1009.66,VALID,0,VALID,104,VALID,0,VALID,23.3433,VALID,68,VALID,0.734766,
2012-08-19, 03:11:04,VALID,1009.64,VALID,0,VALID,104,VALID,0,VALID,23.3433,VALID,88,VALID,0.654688,
2012-08-19, 03:12:04,VALID,1009.62,VALID,0,VALID,104,VALID,0,VALID,23.3433,VALID,95,VALID,0.872656,
2012-08-19, 03:13:04,VALID,1009.63,VALID,0,VALID,104,VALID,0,VALID,23.3433,VALID,87,VALID,0.823438,
2012-08-19, 03:14:04,VALID,1009.58,VALID,0,VALID,104,VALID,0.112112,VALID,23.3628,VALID,71,VALID,1.27305,
2012-08-19, 03:15:04,VALID,1009.57,VALID,0,VALID,104,VALID,0,VALID,23.384,VALID,79,VALID,0.890234,
2012-08-19, 03:16:04,VALID,1009.56,VALID,0,VALID,104,VALID,0,VALID,23.3823,VALID,69,VALID,0.651563,
2012-08-19, 03:17:04,VALID,1009.55,VALID,0,VALID,104,VALID,0,VALID,23.3628,VALID,70,VALID,0.681641,
2012-08-19, 03:18:04,VALID,1009.54,VALID,0,VALID,104,VALID,0,VALID,23.3628,VALID,75,VALID,0.711328,
2012-08-19, 03:19:04,VALID,1009.5,VALID,0,VALID,104,VALID,0,VALID,23.384,VALID,82,VALID,0.900781,
2012-08-19, 03:20:04,VALID,1009.55,VALID,0,VALID,104,VALID,0,VALID,23.3628,VALID,86,VALID,0.69375,
2012-08-19, 03:21:04,VALID,1009.55,VALID,0,VALID,104,VALID,0,VALID,23.3645,VALID,81,VALID,0.708203,
2012-08-19, 03:22:04,VALID,1009.57,VALID,0,VALID,104,VALID,0,VALID,23.3451,VALID,81,VALID,0.615234,
2012-08-19, 03:23:04,VALID,1009.6,VALID,0,VALID,104,VALID,0,VALID,23.3645,VALID,81,VALID,0.365625,
2012-08-19, 03:24:04,VALID,1009.62,VALID,0,VALID,104,VALID,0,VALID,23.3238,VALID,71,VALID,0.969141,
2012-08-19, 03:25:04,VALID,1009.62,VALID,0,VALID,104,VALID,0,VALID,23.3043,VALID,69,VALID,0.886328,
2012-08-19, 03:26:04,VALID,1009.6,VALID,0,VALID,104,VALID,0,VALID,23.3256,VALID,64,VALID,0.2375,
2012-08-19, 03:27:04,VALID,1009.62,VALID,0,VALID,104,VALID,0,VALID,23.2848,VALID,64,VALID,0.521875,
2012-08-19, 03:28:04,VALID,1009.63,VALID,0,VALID,104,VALID,0,VALID,23.2848,VALID,64,VALID,0.00117188,
2012-08-19, 03:29:04,VALID,1009.63,VALID,0,VALID,104,VALID,0,VALID,23.2654,VALID,64,VALID,0.201562,
2012-08-19, 03:30:04,VALID,1009.63,VALID,0,VALID,104,VALID,0,VALID,23.2654,VALID,64,VALID,0.165625,
2012-08-19, 03:31:04,VALID,1009.64,VALID,0,VALID,104,VALID,0,VALID,23.2671,VALID,64,VALID,0.2125,
2012-08-19, 03:32:04,VALID,1009.64,VALID,0,VALID,104,VALID,0,VALID,23.2459,VALID,64,VALID,0.355859,
2012-08-19, 03:33:04,VALID,1009.64,VALID,0,VALID,104,VALID,0,VALID,23.2476,VALID,64,VALID,0.408594,
2012-08-19, 03:34:04,VALID,1009.65,VALID,0,VALID,104,VALID,0,VALID,23.2069,VALID,64,VALID,0.430469,
2012-08-19, 03:35:04,VALID,1009.65,VALID,0,VALID,104,VALID,0,VALID,23.2087,VALID,51,VALID,0.596875,
2012-08-19, 03:36:04,VALID,1009.64,VALID,0,VALID,104,VALID,0,VALID,23.1679,VALID,49,VALID,0.141797,
2012-08-19, 03:37:04,VALID,1009.63,VALID,0,VALID,104,VALID,0,VALID,23.1485,VALID,49,VALID,0,
2012-08-19, 03:38:04,VALID,1009.64,VALID,0,VALID,104,VALID,0,VALID,23.129,VALID,49,VALID,0.299609,
2012-08-19, 03:39:04,VALID,1009.63,VALID,0,VALID,104,VALID,0,VALID,23.1502,VALID,49,VALID,0.3,
2012-08-19, 03:40:04,VALID,1009.65,VALID,0,VALID,104,VALID,0,VALID,23.129,VALID,28,VALID,0.685156,
2012-08-19, 03:41:04,VALID,1009.65,VALID,0,VALID,104,VALID,0,VALID,23.1095,VALID,28,VALID,0.00351562,
2012-08-19, 03:42:04,VALID,1009.66,VALID,0,VALID,104,VALID,0,VALID,23.1112,VALID,28,VALID,0,
2012-08-19, 03:43:04,VALID,1009.65,VALID,0,VALID,104,VALID,0,VALID,23.0705,VALID,28,VALID,0.357031,
2012-08-19, 03:44:04,VALID,1009.66,VALID,0,VALID,104,VALID,0,VALID,23.0705,VALID,28,VALID,0.351172,
2012-08-19, 03:45:04,VALID,1009.64,VALID,0,VALID,104,VALID,0,VALID,23.0511,VALID,28,VALID,0.359375,
2012-08-19, 03:46:04,VALID,1009.61,VALID,0,VALID,104,VALID,0,VALID,23.0705,VALID,28,VALID,0.267188,
2012-08-19, 03:47:04,VALID,1009.63,VALID,0,VALID,104,VALID,0,VALID,23.0511,VALID,28,VALID,0,
2012-08-19, 03:48:04,VALID,1009.63,VALID,0,VALID,104,VALID,0,VALID,23.0316,VALID,28,VALID,0.363672,
2012-08-19, 03:49:04,VALID,1009.62,VALID,0,VALID,104,VALID,0,VALID,23.0316,VALID,27,VALID,0.480078,
2012-08-19, 03:50:04,VALID,1009.62,VALID,0,VALID,104,VALID,0,VALID,23.0316,VALID,27,VALID,0.289063,
2012-08-19, 03:51:04,VALID,1009.65,VALID,0,VALID,104,VALID,0,VALID,23.0528,VALID,27,VALID,0.171484,
2012-08-19, 03:52:04,VALID,1009.62,VALID,0,VALID,104,VALID,0,VALID,23.0121,VALID,27,VALID,0,
2012-08-19, 03:53:04,VALID,1009.64,VALID,0,VALID,104,VALID,0,VALID,23.0528,VALID,27,VALID,0,
2012-08-19, 03:54:04,VALID,1009.62,VALID,0,VALID,104,VALID,0,VALID,23.0316,VALID,27,VALID,0.256641,